Volver al catálogo

STARLINK-30583

ActivoComunicacionesVLEO
NORAD 58086·PAYLOAD·🇺🇸 United States

Lanzado Oct 18, 2023 desde Cape Canaveral Space Force Station

Loading…

Próximos Pases (próximas 24 horas)

TLE

ActualizadoSource: CelesTrak SupGP

Época: Sep 14, 2026, 13:45 UTC

1 58086C 23160M   26257.57340278  .00015730  00000+0  56933-3 0  2578
2 58086  43.0001  94.6907 0001247 252.3560  41.5335 15.27594819    12

Sigue STARLINK-30583 en tiempo real con AllMySat

Download on the App Store